Location: Dana
(41.8364°N, 106.7042°W)
Time: 20:11:26
(UTC+00:00)

Injun/Solrad 3 - Pass Details

Date: 12 May 2026
Orbit: 867 x 989 km, 66.8° (Epoch: 6 June)

Event Time Altitude Azimuth Distance (km) Brightness Sun altitude
Rises 21:52:15 0° 170° (S) 3,487 11.0 47.1°
Reaches altitude 10° 21:55:11 10° 156° (SSE) 2,570 10.3 46.6°
Maximum altitude 21:59:47 24° 106° (ESE) 1,820 9.3 45.8°
Drops below altitude 10° 22:04:30 10° 55° (NE) 2,650 10.0 45.0°
Sets 22:07:33 0° 42° (NE) 3,620 10.6 44.4°
